Showing default

COSMOS 1924, 18937

Orbit data source: Space-Track

COSMOS 1924, 18937 is a payload satellite owned by UNKS (CIS) in LEO that was launched on Fri, 11 Mar 1988 UTC via a KOSMOS 11K65M launch vehicle from the Plesetsk Missile And Space Complex (PKMTR). Payload-class satellites include a variety of spacecraft equipped with specific instruments for various scientific and technological missions. These include communications satellites like Starlink; space stations such as the ISS; scientific satellites like the Hubble; Earth observation satellites from companies like Planet Labs, Umbra, and HawkEye 360; GPS; miniature CubeSats for education and research; and military/defense satellites.

Loading next visibility...
Identifier
18937, 1988-016A
Orbit
LEO
Country
Flag of CISCIS
Related business
Manufacturer
NPO PM
Mission
Defense Communications
Bus & Motor
STRELA-1 11F625, Unknown motor
Mass
60 kg wet, 60 kg dry
Launch date (UTC)
1988-03-11 (38 years ago)
Launch vehicle
KOSMOS 11K65M
Launch site
Plesetsk Missile And Space Complex (PKMTR)
Object type
Payload
Rocket body
Debris
Shape & HBR
Sphere, 0.4 m
Radar Cross Section
0.588 m², Medium (>0.1 m² and < 1m²)

Expand to show TLE details & history
Last TLE update: 18 hours ago

TLE from 18 hours ago
0 COSMOS 1924
1 18937U 88016A   25348.84329693 -.00000003  00000-0  88090-4 0  9990
2 18937  74.0067  11.7972 0035326 310.4492 222.5660 12.44619490715739
Epoch: 2025-12-14T20:14Z
TLE epoch observation values (Epoch: 2025-12-14T20:14:20.854Z)
Latitude
6.91358°
Longitude
162.478°
Altitude
1,509.336 km
Speed
7.101 km/s
True Right ascension
12h 39m 15s
True Declination
6° 52' 35"
Sunlit
Object was in daylight at epoch
Visualization orbit readout
Latitude
Unknown
Longitude
Unknown
Altitude
Unknown
Speed
Unknown
Apparent Right ascension
Unknown
Apparent Declination
Unknown
Sunlit
N/A
Visualization observer readout
Local Sidereal Time
13:18:45
Azimuth
Unknown
Elevation
Unknown
Doppler factor
Unknown
Orbital elements
Apogee altitude
1,512.701 km
Perigee altitude
1,457.147 km
Semi-major axis
7,863.061 km
Eccentricity
0.00353
Inclination
74.0067°
RAAN
11.7972°
Arg. of periapsis
310.4492°
True anomaly
222.29306°
Mean anomaly
222.566°
Eccentric anomaly
222.42944°
Mean motion
3.11283 °/min
Orbital period
115.65 mins
BSTAR
0.00008809
Loading maneuver chart data...
Computing Atmospheric mass density...
Loading historical data...
Loading historical data...
Loading historical data...
Loading historical data...
Loading historical data...
Loading historical data...
Loading historical data...

Documentation

Showing up to 5 results
|